Location: Kergonan
(48.2337°N, 4.5518°W)
Time: 12:32:51
(UTC+00:00)

NOSS 3-4 (C) - Pass Details

Date: 18 January 2020
Orbit: 905 x 1307 km, 63.4° (Epoch: 06 February)

Event Time Altitude Azimuth Distance (km) Brightness Sun altitude
Rises 07:21:57 0° 216° (SW) 3,520 6.3 -6.8°
Reaches altitude 10° 07:24:24 10° 215° (SW) 2,592 5.6 -6.4°
Maximum altitude 07:30:24 84° 128° (SE) 953 3.6 -5.5°
Drops below altitude 10° 07:36:50 10° 42° (NE) 2,770 6.1 -4.6°
Sets 07:39:32 0° 42° (NE) 3,778 6.8 -4.2°
